GW0410 Weather Reports


time (UTC)temp
C
wind
direction
speed
KPH
gust
KPH
rain 1hr
cm
rain 24hr
cm
rain mn
cm
humidity
%
barometer
mb
20240523121024 21 0.0 0.0 0.00 0.00 0.00 71 1017.1
20240523120032 20 210 0.0 0.0 0.00 0.00 0.00 72 1016.7
20240523115027 20 0.0 0.0 0.00 0.00 0.00 73 1016.8
20240523114019 20 0.0 0.0 0.00 0.00 0.00 72 1017.1
20240523113040 21 111 0.0 0.0 0.00 0.00 0.00 72 1017.1
20240523112019 20 0.0 0.0 0.00 0.00 0.00 71 1017.1
20240523111020 21 0.0 0.0 0.00 0.00 0.00 71 1017.1
20240523110020 20 120 0.0 0.0 0.00 0.00 0.00 73 1017.1
20240523105040 20 0.0 0.0 0.00 0.00 0.00 72 1017.1
20240523104020 20 128 0.0 0.0 0.00 0.00 0.00 71 1016.7
20240523103021 20 111 0.0 0.0 0.00 0.00 0.00 71 1017.1
20240523102025 21 109 0.0 0.0 0.00 0.00 0.00 69 1017.2
20240523101021 21 0.0 0.0 0.00 0.00 0.00 68 1017.2
20240523100035 22 103 0.0 0.0 0.00 0.00 0.00 66 1017.3
20240523095026 22 111 0.0 1.6 0.00 0.00 0.00 67 1017.3
20240523094037 22 99 1.6 4.8 0.00 0.00 0.00 66 1017.3
20240523093026 21 298 0.0 0.0 0.00 0.00 0.00 69 1017.2
20240523092023 20 263 0.0 1.6 0.00 0.00 0.00 72 1017.1
20240523091022 20 266 0.0 1.6 0.00 0.00 0.00 72 1017.1
20240523090024 20 263 0.0 3.2 0.00 0.00 0.00 71 1017.3
20240523085034 20 269 0.0 0.0 0.00 0.00 0.00 71 1017.3
20240523084040 21 320 0.0 1.6 0.00 0.00 0.00 70 1017.3
20240523083024 22 271 0.0 3.2 0.00 0.00 0.00 67 1017.3
20240523082019 22 117 0.0 0.0 0.00 0.00 0.00 67 1017.3
20240523081020 22 99 1.6 4.8 0.00 0.00 0.00 66 1017.4
20240523080023 22 99 0.0 3.2 0.00 0.00 0.00 67 1017.1
20240523075022 22 150 0.0 0.0 0.00 0.00 0.00 68 1017.1
20240523074029 21 262 0.0 1.6 0.00 0.00 0.00 68 1017.0
20240523073044 21 254 0.0 3.2 0.00 0.00 0.00 70 1017.4
20240523072023 21 0.0 0.0 0.00 0.00 0.00 69 1017.4
20240523071047 21 0.0 0.0 0.00 0.00 0.00 73 1017.1
20240523070019 20 114 0.0 1.6 0.00 0.00 0.00 76 1017.4
20240523065044 18 134 0.0 0.0 0.00 0.00 0.00 79 1017.4
20240523064024 20 97 1.6 4.8 0.00 0.00 0.00 79 1017.1
20240523063026 18 0.0 0.0 0.00 0.00 0.00 82 1017.4
20240523062021 16 0.0 0.0 0.00 0.00 0.00 92 1017.2
20240523061022 13 0.0 0.0 0.00 0.00 0.00 97 1016.8
20240523060023 12 264 0.0 0.0 0.00 0.00 0.00 98 1016.8
20240523055018 12 258 0.0 0.0 0.00 0.00 0.00 99 1016.7
20240523054101 12 293 0.0 3.2 0.00 0.00 0.00 99 1016.4
20240523053021 11 0.0 0.0 0.00 0.00 0.00 99 1016.4
20240523052042 11 0.0 0.0 0.00 0.00 0.00 99 1016.4
20240523051043 11 0.0 0.0 0.00 0.00 0.00 99 1016.4
20240523050021 10 0.0 0.0 0.00 0.00 0.00 99 1016.2
20240523045026 10 0.0 0.0 0.00 0.00 0.00 99 1016.3
20240523044025 10 0.0 0.0 0.00 0.00 0.00 99 1016.2
20240523043032 10 0.0 0.0 0.00 0.00 0.00 99 1016.2
20240523042029 10 0.0 0.0 0.00 0.00 0.00 99 1016.1
20240523041105 10 0.0 0.0 0.00 0.00 0.00 99 1016.1
20240523040020 10 0.0 0.0 0.00 0.00 0.00 99 1015.8
20240523035052 10 0.0 0.0 0.00 0.00 0.00 99 1015.7
20240523034028 10 0.0 0.0 0.00 0.00 0.00 99 1015.7
20240523033044 9 268 0.0 1.6 0.00 0.00 0.00 99 1015.7
20240523032027 8 0.0 0.0 0.00 0.00 0.00 99 1015.6
20240523031054 8 0.0 0.0 0.00 0.00 0.00 99 1015.3
20240523030026 8 0.0 0.0 0.00 0.00 0.00 99 1015.3
20240523025048 8 0.0 0.0 0.00 0.00 0.00 99 1015.3
20240523024026 9 0.0 0.0 0.00 0.00 0.00 99 1015.3
20240523023028 8 0.0 0.0 0.00 0.00 0.00 98 1015.0
20240523022036 9 0.0 0.0 0.00 0.00 0.00 98 1015.0
20240523021030 9 0.0 0.0 0.00 0.00 0.00 98 1015.1
20240523020032 9 0.0 0.0 0.00 0.00 0.00 98 1014.8
20240523015027 9 0.0 0.0 0.00 0.00 0.00 98 1014.8
20240523014024 9 0.0 0.0 0.00 0.00 0.00 98 1014.8
20240523013025 10 0.0 0.0 0.00 0.00 0.00 98 1014.8
20240523012029 10 0.0 0.0 0.00 0.00 0.00 98 1014.7
20240523011025 10 0.0 0.0 0.00 0.00 0.00 98 1014.7
20240523010054 10 0.0 0.0 0.00 0.00 0.00 98 1014.7
20240523005055 10 0.0 0.0 0.00 0.00 0.00 98 1014.6
20240523004024 10 0.0 0.0 0.00 0.00 0.00 98 1014.6
20240523003024 10 0.0 0.0 0.00 0.00 0.00 98 1014.6
20240523002019 10 0.0 0.0 0.00 0.00 0.00 98 1014.6
20240523001042 10 0.0 0.0 0.00 0.00 0.00 98 1014.6
20240523000020 9 0.0 0.0 0.00 0.00 0.00 97 1014.5
20240522235044 9 0.0 0.0 0.00 0.00 0.00 97 1014.6
20240522234026 9 0.0 0.0 0.00 0.00 0.00 97 1014.3
20240522233020 9 0.0 0.0 0.00 0.00 0.00 97 1014.2
20240522232023 10 0.0 0.0 0.00 0.00 0.00 97 1014.2
20240522231021 10 0.0 0.0 0.00 0.00 0.00 97 1014.3
20240522230026 10 0.0 0.0 0.00 0.00 0.00 96 1014.2
20240522225023 10 0.0 0.0 0.00 0.00 0.00 96 1014.2
20240522224028 10 0.0 0.0 0.00 0.00 0.00 96 1014.3
20240522223023 10 0.0 0.0 0.00 0.00 0.00 96 1014.3
20240522222025 11 0.0 0.0 0.00 0.00 0.00 95 1014.3
20240522221029 11 0.0 0.0 0.00 0.00 0.00 95 1013.9
20240522220028 11 0.0 0.0 0.00 0.00 0.00 95 1014.3
20240522215046 11 0.0 0.0 0.00 0.00 0.00 95 1014.2
20240522214035 11 0.0 0.0 0.00 0.00 0.00 94 1014.2
20240522213020 11 0.0 0.0 0.00 0.00 0.00 94 1013.9
20240522212021 11 0.0 0.0 0.00 0.00 0.00 93 1013.9
20240522211018 11 0.0 0.0 0.00 0.00 0.00 92 1013.9
20240522210040 11 0.0 0.0 0.00 0.00 0.00 92 1013.5
20240522205024 12 0.0 0.0 0.00 0.00 0.00 91 1013.5
20240522204021 12 0.0 0.0 0.00 0.00 0.00 91 1013.5
20240522203024 12 0.0 0.0 0.00 0.00 0.00 90 1013.6
20240522202022 12 0.0 0.0 0.00 0.00 0.00 90 1013.6
20240522201022 12 0.0 0.0 0.00 0.00 0.00 89 1013.3
20240522200019 12 0.0 0.0 0.00 0.00 0.00 88 1013.3
20240522195023 13 0.0 0.0 0.00 0.00 0.00 86 1013.3
20240522194040 13 0.0 0.0 0.00 0.00 0.00 85 1012.6
20240522193027 13 0.0 0.0 0.00 0.00 0.00 84 1013.0
20240522192023 14 0.0 0.0 0.00 0.00 0.00 82 1013.0
20240522191019 15 0.0 0.0 0.00 0.00 0.00 81 1012.7
20240522190025 15 0.0 0.0 0.00 0.00 0.00 79 1012.7
20240522185023 16 0.0 0.0 0.00 0.00 0.00 76 1012.7
20240522184051 16 0.0 0.0 0.00 0.00 0.00 75 1012.7
20240522183026 16 272 0.0 1.6 0.00 0.00 0.00 73 1012.4
20240522182036 17 0.0 0.0 0.00 0.00 0.00 71 1012.4
20240522181019 17 269 0.0 0.0 0.00 0.00 0.00 70 1012.4
20240522180019 17 0.0 0.0 0.00 0.00 0.00 70 1012.4
20240522175020 17 0.0 0.0 0.00 0.00 0.00 69 1012.4
20240522174023 18 233 0.0 0.0 0.00 0.00 0.00 68 1011.8
20240522173026 18 283 0.0 1.6 0.00 0.00 0.00 67 1012.2
20240522172105 18 275 0.0 3.2 0.00 0.00 0.00 67 1012.2
20240522171024 19 0.0 0.0 0.00 0.00 0.00 65 1011.9
20240522170019 20 291 0.0 0.0 0.00 0.00 0.00 63 1011.9
20240522165020 21 0.0 0.0 0.00 0.00 0.00 62 1011.9
20240522164025 23 338 0.0 1.6 0.00 0.00 0.00 57 1012.1
20240522163046 23 0.0 0.0 0.00 0.00 0.00 54 1011.8
20240522162020 23 183 0.0 1.6 0.00 0.00 0.00 56 1011.8
20240522161024 22 134 0.0 1.6 0.00 0.00 0.00 59 1012.0
20240522160021 22 51 0.0 0.0 0.00 0.00 0.00 62 1011.7
20240522155019 20 281 1.6 4.8 0.00 0.00 0.00 65 1011.6
20240522154023 21 272 3.2 6.4 0.00 0.00 0.00 63 1011.6
20240522153027 21 271 3.2 6.4 0.00 0.00 0.00 63 1012.0
20240522152024 23 265 3.2 6.4 0.00 0.00 0.00 58 1012.1
20240522151025 23 301 1.6 6.4 0.00 0.00 0.00 57 1011.8
20240522150021 22 277 1.6 4.8 0.00 0.00 0.00 59 1012.0
20240522145021 20 292 0.0 3.2 0.00 0.00 0.00 65 1012.0
20240522144034 22 315 0.0 3.2 0.00 0.00 0.00 62 1012.1
20240522143047 21 271 1.6 6.4 0.00 0.00 0.00 62 1012.0
20240522142025 21 264 1.6 4.8 0.00 0.00 0.00 65 1012.0
20240522141025 22 273 1.6 6.4 0.00 0.00 0.00 62 1012.1
20240522140022 23 290 1.6 4.8 0.00 0.00 0.00 61 1012.1
20240522135025 22 276 0.0 6.4 0.00 0.00 0.00 65 1012.1
20240522134036 20 260 0.0 3.2 0.00 0.00 0.00 67 1012.0
20240522133019 22 283 1.6 3.2 0.00 0.00 0.00 64 1012.4
20240522132019 22 267 1.6 4.8 0.00 0.00 0.00 65 1012.4
20240522131040 22 287 0.0 0.0 0.00 0.00 0.00 66 1012.7
20240522130026 21 256 1.6 6.4 0.00 0.00 0.00 66 1012.4
20240522125049 20 254 0.0 0.0 0.00 0.00 0.00 71 1012.3
20240522124042 19 301 0.0 1.6 0.00 0.00 0.00 74 1012.6
20240522123026 18 286 1.6 4.8 0.00 0.00 0.00 76 1012.6
20240522122018 18 275 1.6 4.8 0.00 0.00 0.00 76 1012.6